Weather History for Lancaster, PA

Change the Weather History Date:

Wednesday, January 18, 2006

  Actual Average Record
Temperature  
Mean Temperature 48 °F -  
Max Temperature 62 °F 37 °F 67 °F (1990)
Min Temperature 34 °F 21 °F -4 °F (1977)
Degree Days  
Heating Degree Days 16    
Moisture  
Dew Point 42 °F    
Average Humidity 78    
Maximum Humidity 94    
Minimum Humidity 48    
Precipitation  
Precipitation 1.02 in - - ()
Sea Level Pressure  
Sea Level Pressure 29.61 in    
Wind  
Wind Speed 18 mph (SW)    
Max Wind Speed 31 mph    
Max Gust Speed 41 mph    
Visibility 6 miles    
Events Rain , Snow    
Averages and records for this station are not official NWS values.
T = Trace of Precipitation, MM = Missing Value Source: NWS Daily Summary

Daily Weather History Graph

Daily Weather History Graph

Search for Another Location

Airport:

Trip Planner

Search our weather history database for the weather conditions in past years. The results will help you decide how hot, cold, wet, or windy it might be!

Date:

Astronomy

Jan. 18, 2006 Rise Set
Actual Time 7:24 AM EST 5:07 PM EST
Civil Twilight 6:54 AM EST 5:37 PM EST
Nautical Twilight 6:21 AM EST 6:10 PM EST
Astronomical Twilight 5:48 AM EST 6:42 PM EST
Moon 9:18 PM EST (1/18) 9:45 AM EST (1/18)
Length of Visible Light 10h 42m
Length of Day
9h 43m
Waning Gibbous, 84% of the Moon is Illuminated
Jan 18
Waning Gibbous
Jan 22
Last Quarter
Jan 29
New
Feb 5
First Quarter
Feb 12
Full

Hourly Weather History & Observations

Time (EST) Temp. Windchill Dew Point Humidity Pressure Visibility Wind Dir Wind Speed Gust Speed Precip Events Conditions
12:53 AM 50.0 °F - 48.0 °F 93% 29.66 in 5.0 mi ESE 16.1 mph - N/A   Overcast
1:25 AM 55.4 °F - 51.8 °F 88% 29.60 in 7.0 mi ESE 19.6 mph 29.9 mph N/A   Overcast
1:53 AM 57.0 °F - 54.0 °F 89% 29.59 in 10.0 mi SE 19.6 mph 27.6 mph N/A   Overcast
2:34 AM 59.0 °F - 55.4 °F 88% 29.57 in 2.5 mi South 15.0 mph 25.3 mph 0.06 in Rain Heavy Rain
2:43 AM 57.2 °F - 55.4 °F 94% 29.56 in 4.0 mi SSE 19.6 mph 24.2 mph 0.08 in Rain Rain
2:53 AM 57.9 °F - 55.9 °F 93% 29.56 in 3.0 mi SSE 18.4 mph 24.2 mph 0.10 in Rain Rain
3:03 AM 57.2 °F - 55.4 °F 94% 29.55 in 2.5 mi SSE 13.8 mph - 0.03 in Rain Rain
3:10 AM 57.2 °F - 55.4 °F 94% 29.54 in 4.0 mi SSE 15.0 mph - 0.04 in Rain Light Rain
3:53 AM 61.0 °F - 57.0 °F 87% 29.50 in 8.0 mi SSE 19.6 mph 28.8 mph 0.05 in Rain Light Rain
4:53 AM 62.1 °F - 57.9 °F 86% 29.44 in 5.0 mi South 20.7 mph 34.5 mph 0.02 in   Overcast
5:53 AM 61.0 °F - 57.0 °F 87% 29.48 in 5.0 mi SSW 23.0 mph 36.8 mph 0.10 in   Overcast
6:53 AM 57.9 °F - 55.0 °F 90% 29.47 in 5.0 mi South 11.5 mph - 0.11 in Rain Heavy Rain
7:53 AM 55.9 °F - 53.1 °F 90% 29.43 in 5.0 mi Variable 5.8 mph - 0.14 in Rain Rain
8:01 AM 55.4 °F - 53.6 °F 94% 29.43 in 5.0 mi South 13.8 mph 19.6 mph 0.02 in Rain Rain
8:20 AM 55.4 °F - 53.6 °F 94% 29.43 in 5.0 mi South 10.4 mph - 0.06 in Rain Rain
8:35 AM 55.4 °F - 53.6 °F 94% 29.43 in 5.0 mi South 12.7 mph 18.4 mph 0.09 in Rain Rain
8:53 AM 55.0 °F - 52.0 °F 89% 29.42 in 4.0 mi SW 8.1 mph - 0.14 in Rain Rain
9:04 AM 55.4 °F - 51.8 °F 88% 29.42 in 2.0 mi WSW 8.1 mph 19.6 mph 0.06 in Rain Heavy Rain
9:07 AM 55.4 °F - 51.8 °F 88% 29.42 in 1.8 mi WSW 9.2 mph 19.6 mph 0.08 in Rain Heavy Rain
9:24 AM 48.2 °F - 44.6 °F 87% 29.47 in 2.5 mi West 27.6 mph 35.7 mph 0.20 in Rain Light Rain
9:31 AM 48.2 °F - 42.8 °F 82% 29.46 in 3.0 mi West 26.5 mph 35.7 mph 0.22 in Rain Light Rain
9:53 AM 46.0 °F 37.8 °F 42.1 °F 86% 29.49 in 4.0 mi West 23.0 mph 36.8 mph 0.26 in   Overcast
10:00 AM 46.4 °F 37.7 °F 41.0 °F 81% 29.48 in 4.0 mi West 26.5 mph 32.2 mph 0.02 in Rain Rain
10:41 AM 44.6 °F 36.1 °F 39.2 °F 81% 29.51 in 5.0 mi West 21.9 mph 28.8 mph 0.07 in Rain Light Rain
10:53 AM 43.0 °F 33.3 °F 37.9 °F 82% 29.51 in 3.0 mi West 25.3 mph 33.4 mph 0.09 in Rain Light Rain
11:53 AM 42.1 °F 32.8 °F 32.0 °F 67% 29.55 in 10.0 mi West 21.9 mph 28.8 mph 0.01 in   Overcast
12:53 PM 41.0 °F 30.7 °F 28.9 °F 62% 29.59 in 10.0 mi West 25.3 mph 35.7 mph N/A   Overcast
1:53 PM 39.9 °F 28.4 °F 25.0 °F 55% 29.65 in 10.0 mi West 29.9 mph 38.0 mph N/A   Overcast
2:53 PM 39.9 °F 28.2 °F 21.9 °F 49% 29.71 in 10.0 mi West 31.1 mph 41.4 mph N/A   Mostly Cloudy
3:53 PM 37.9 °F 27.1 °F 19.9 °F 48% 29.78 in 10.0 mi West 23.0 mph 32.2 mph 0.00 in Snow Light Snow
4:53 PM 37.0 °F 26.4 °F 19.9 °F 50% 29.84 in 9.0 mi West 20.7 mph 34.5 mph 0.00 in Snow Light Snow
5:53 PM 35.1 °F 25.5 °F 19.0 °F 52% 29.90 in 9.0 mi West 15.0 mph 25.3 mph 0.00 in   Partly Cloudy
6:53 PM 35.1 °F 25.2 °F 19.0 °F 52% 29.95 in 10.0 mi WSW 16.1 mph 20.7 mph N/A   Scattered Clouds
7:53 PM 35.1 °F 26.4 °F 19.0 °F 52% 29.98 in 10.0 mi WSW 12.7 mph - N/A   Mostly Cloudy
8:53 PM 35.1 °F 24.1 °F 19.0 °F 52% 30.01 in 10.0 mi West 19.6 mph - 0.00 in   Mostly Cloudy
9:53 PM 35.1 °F 26.4 °F 19.9 °F 54% 30.04 in 10.0 mi West 12.7 mph - N/A   Partly Cloudy
10:53 PM 34.0 °F 25.5 °F 19.9 °F 56% 30.08 in 10.0 mi WSW 11.5 mph - 0.00 in   Clear